Location: Nakusp
(50.2330°N, 117.8000°W)
Time: 20:42:04
(UTC-08:00)

Daily predictions for brighter satellites

Satellite Brightness Start Highest point End
(mag) Time Altitude Azimuth Time Altitude Azimuth Time Altitude Azimuth
ATLAS 3B R/B 3.7 16:44:39 10° W 16:51:36 40° NNW 16:58:16 10° NE
Cosmos 1898 Rocket 4.1 16:48:10 10° NNW 16:53:30 68° WSW 16:58:46 10° SSE
Cosmos 2150 Rocket 4.2 16:49:11 10° NNW 16:54:27 79° WSW 16:59:36 10° SSE
Cosmos 1674 3.6 16:51:54 10° SSE 16:55:13 28° E 16:58:34 10° NNE
Thor Agena Rocket 4.2 16:52:34 10° NNE 16:57:26 36° E 17:02:13 10° SSE
EO 1 Del DPAF 3.7 16:54:02 10° N 16:57:54 67° WNW 17:01:43 10° SSW
USA 215 3.3 16:52:22 10° ESE 16:58:55 77° NNE 17:05:29 10° WNW
Cosmos 1076 Rocket 3.5 16:55:06 10° S 16:59:18 65° E 17:03:34 10° NNE
AQUARIUS 4.1 16:55:31 10° SSE 16:59:59 69° ENE 17:04:29 10° N
Cosmos 1484 Rocket 3.5 16:56:41 10° SE 17:00:12 32° ENE 17:03:47 10° N
Cosmos 1125 Rocket 4.0 16:56:06 10° NNW 17:00:58 38° NE 17:05:48 10° SE
Cosmos 1634 Rocket 4.4 16:55:59 10° N 17:01:50 41° ENE 17:07:37 10° SE
Cosmos 990 Rocket 4.0 16:56:38 10° NNW 17:01:56 86° ENE 17:07:12 10° SSE
MTI 4.4 16:58:42 10° N 17:01:56 58° WNW 17:05:08 10° SSW
SPOT 3 Rocket 3.5 16:56:57 10° SSE 17:02:03 69° ENE 17:07:13 10° N
BREEZE M DEB (TANK) 2.2 16:57:56 10° W 17:02:44 67° SSW 17:05:01 10° ESE
CZ-4C R/B 3.7 16:58:18 10° WNW 17:03:23 28° NNW 17:09:05 10° NE
Cosmos 1814 Rocket 4.3 16:58:15 10° S 17:03:25 52° ESE 17:08:37 10° NNE
MSX 3.8 16:59:10 10° SSE 17:04:48 64° ENE 17:10:30 10° N
NOSS 3-2 (A) 3.9 16:58:48 10° SW 17:04:58 67° NW 17:11:52 10° NE
Cosmos 1300 3.8 17:03:26 10° NNE 17:06:34 23° ENE 17:09:41 10° ESE
COSMOS 2428 3.2 17:02:04 10° S 17:07:25 43° ESE 17:12:47 10° NE
SJ-12 4.0 17:03:25 10° SSE 17:07:34 87° WSW 17:11:44 10° NNW
Cosmos 2221 3.6 17:03:31 10° NNW 17:07:39 48° W 17:11:45 10° SSW
Cosmos 1726 3.2 17:05:11 10° NNE 17:08:19 24° ENE 17:11:26 10° SE
NOSS 3-2 (C) 3.8 17:02:46 10° SW 17:08:58 75° NW 17:15:53 10° NE
Cosmos 2369 Rocket 4.1 17:08:30 10° N 17:10:06 11° NNE 17:11:43 10° NE
Cosmos 2237 Rocket 3.7 17:07:45 10° SE 17:11:16 17° E 17:14:49 10° ENE
Cosmos 2237 4.4 17:06:58 10° S 17:12:31 56° ESE 17:18:07 10° NE
ALOS 3.9 17:10:59 10° E 17:13:26 14° NE 17:15:52 10° NNE
Lacrosse 5 rocket 1.3 17:11:20 10° NW 17:14:58 52° NNE 17:18:47 10° ESE
IDEFIX/ARIANE 42P 2.9 17:13:06 10° S 17:18:19 75° WSW 17:23:36 10° NNW
COSMOS 2455 4.2 17:13:59 10° W 17:19:18 31° NW 17:24:39 10° NNE
Cosmos 2297 4.5 17:14:21 10° NNW 17:19:22 31° NE 17:24:24 10° ESE
Cosmos 2034 Rocket 4.5 17:13:48 10° NNW 17:20:07 69° W 17:26:26 10° S
Cosmos 371 Rocket 4.3 17:17:24 10° SSE 17:21:23 27° E 17:25:21 10° NE
Cosmos 841 Rocket 3.9 17:16:57 10° S 17:21:53 43° ESE 17:26:52 10° NE
CZ-4 R/B 2.0 17:18:03 10° S 17:21:53 59° W 17:25:46 10° NNW
FREGAT/IRIS 4.4 17:25:10 15° ENE 17:25:12 15° ENE 17:27:02 10° NNE
Cosmos 468 Rocket 4.1 17:24:13 10° SSW 17:29:24 81° WNW 17:34:35 10° NNE
Lacrosse 4 Rocket 3.2 17:27:53 10° N 17:30:05 14° NNE 17:31:06 13° NE
Cosmos 1766 Rocket 3.7 17:27:37 10° SSW 17:32:05 78° W 17:36:34 10° N
Meteor 1-28 Rocket 4.4 17:29:52 13° NE 17:32:20 23° E 17:35:20 10° SSE
SMAP 3.8 17:29:32 10° S 17:34:08 59° W 17:38:46 10° NNW
Cosmos 2322 3.9 17:28:30 10° SW 17:34:11 73° WNW 17:39:56 10° NNE
Resurs 01 Rocket 3.0 17:31:55 11° E 17:34:46 19° ENE 17:37:52 10° NNE
COSMO-SKYMED 1 3.0 17:33:05 10° NNE 17:37:12 39° E 17:41:16 10° SSE
Cosmos 1844 Rocket 3.2 17:32:29 10° NW 17:38:06 64° WSW 17:43:41 10° SSE
Meteor 2-2 Rocket 4.2 17:32:31 10° NNW 17:38:12 89° ENE 17:43:51 10° S
Cosmos 1328 4.3 17:35:06 10° SSE 17:38:43 36° E 17:42:23 10° NNE
CENTAUR R/B 2.6 17:33:07 10° SSW 17:39:15 68° SE 17:45:38 13° NE
Lacrosse 5 2.2 17:35:04 10° WSW 17:40:04 58° NNW 17:43:59 16° NE
Cosmos 44 Rocket 4.2 17:35:39 10° S 17:40:10 33° ESE 17:43:11 18° ENE
SL-16 R/B 3.7 17:35:51 10° WSW 17:40:53 32° NW 17:45:57 10° NNE
YAOGAN 1 3.5 17:38:56 10° S 17:43:09 53° W 17:47:25 10° NNW
Cosmos 2228 Rocket 3.4 17:38:48 10° NNW 17:43:13 69° W 17:47:36 10° S
CZ-2C R/B 3.8 17:41:00 10° S 17:45:44 43° W 17:50:22 10° NNW
Cosmos 2333 4.1 17:43:08 10° SSW 17:48:43 73° ESE 17:54:09 11° NNE
USA 116 3.9 17:46:45 10° N 17:50:03 55° WNW 17:53:08 10° SSW
SJ-6B 3.3 17:47:52 10° SE 17:51:40 39° ENE 17:55:32 10° N
Cosmos 2279 Rocket 4.0 17:48:06 10° N 17:54:14 58° ENE 18:00:21 10° SSE
Cosmos 2360 Rocket 3.0 17:51:27 10° SW 17:56:53 48° NW 18:02:21 10° NNE
Cosmos 1980 4.1 17:52:52 10° S 17:58:09 41° ESE 18:01:38 20° NE
Cosmos 1980 Rocket 4.4 17:55:45 10° WNW 17:58:51 15° NNW 18:01:57 10° N
Cosmos 2058 3.4 17:55:28 10° SSE 17:59:14 36° E 18:01:14 22° NE
SKYMED 3 4.5 18:02:59 10° NNE 18:07:21 77° ESE 18:11:42 10° S
FENGYUN 3A 4.0 18:04:24 10° SE 18:09:24 41° ENE 18:14:25 10° N
Cosmos 1763 Rocket 3.7 18:04:29 10° SSW 18:09:42 71° WNW 18:14:52 10° NNE
Cosmos 2333 Rocket 2.2 18:05:10 10° S 18:10:40 58° ESE 18:14:23 21° NE
Cosmos 2180 Rocket 4.4 18:06:21 10° N 18:12:29 65° ENE 18:18:38 10° SSE
Cosmos 372 Rocket 3.9 18:07:39 10° NNW 18:12:48 88° WSW 18:17:54 10° SSE
Orbus 7S? 3.9 18:09:41 10° NW 18:13:06 61° NNE 18:16:33 25° ESE
Meteor 2-10 3.8 18:08:26 10° N 18:13:31 79° ENE 18:18:41 10° SSE
Cosmos 1743 Rocket 4.2 18:10:33 10° SSW 18:14:58 58° WNW 18:19:25 10° N
ATLAS 5 CENTAUR R/B 3.7 18:11:42 10° NW 18:15:56 22° N 18:17:47 19° NE
Nadezhda 4 Rocket 4.4 18:14:32 10° SSE 18:20:11 37° E 18:25:54 10° NNE
Cosmos 1340 Rocket 3.1 18:17:31 10° SSE 18:21:05 44° ESE 18:21:05 44° ESE
METEOR-M 4.0 18:16:17 10° SSE 18:21:39 85° ENE 18:27:02 10° NNW
Meteor 1-27 4.3 18:15:51 10° NNW 18:21:42 88° WSW 18:27:32 10° S
DNEPR-1 R/B 4.4 18:15:43 10° SSW 18:22:20 64° SE 18:25:02 31° NE
Cosmos 1455 4.3 18:20:04 10° N 18:20:45 14° N 18:20:45 14° N
Cosmos 2219 Rocket 2.1 18:18:04 10° SSW 18:23:44 87° ESE 18:27:46 20° NNE
Cosmos 2278 Rocket 2.7 18:19:12 10° NW 18:24:48 61° WSW 18:30:23 10° SSE
SKYMED 2 3.8 18:21:03 10° N 18:25:25 72° WNW 18:29:44 10° SSW
Cosmos 2151 2.8 18:21:16 10° S 18:25:28 89° E 18:29:05 14° N
Cosmos 2322 Rocket 4.3 18:21:38 10° W 18:25:38 19° NW 18:29:37 10° N
SL-14 R/B 3.3 18:25:54 10° SSW 18:29:50 83° W 18:32:35 19° N
Cosmos 540 Rocket 3.4 18:24:47 10° SSW 18:29:56 70° ESE 18:32:33 29° NE
Cosmos 332 Rocket 4.2 18:26:22 10° SW 18:31:10 62° WNW 18:34:56 17° NNE
Cosmos 1151 Rocket 4.2 18:27:30 10° NNW 18:31:34 44° W 18:35:38 10° SSW
Cosmos 1805 Rocket 3.6 18:29:56 10° S 18:34:16 53° E 18:34:23 53° E
Cosmos 783 Rocket 4.5 18:30:11 10° S 18:35:25 61° ESE 18:37:19 38° NE
Cosmos 1943 Rocket 4.0 18:32:21 10° N 18:34:47 15° NNE 18:34:47 15° NNE
USA 215 4.2 18:36:00 10° SSE 18:42:14 45° SW 18:48:29 10° WNW
Cosmos 1726 4.1 18:40:21 10° NNW 18:43:41 30° W 18:47:00 10° SSW
ATLAS 3B R/B 4.0 18:38:12 10° WNW 18:44:15 27° N 18:46:53 22° NNE
Timation 1 Rocket 4.5 18:40:27 10° NNW 18:46:28 75° WSW 18:52:27 10° SSE
ALOS 2.1 18:45:30 10° SSE 18:50:10 84° ENE 18:54:53 10° NNW
COSMOS 2428 3.8 18:46:22 10° WSW 18:51:45 41° NW 18:56:00 16° NNE
Cosmos 44 3.2 18:47:54 10° SSW 18:53:06 75° SE 18:53:37 68° ENE
CZ-4C R/B 3.8 18:48:30 10° NW 18:53:56 28° NNE 18:55:11 26° NNE
Lacrosse 5 rocket 2.6 18:50:37 10° WNW 18:54:06 35° SW 18:55:10 29° S
Cosmos 2237 Rocket 2.1 18:48:55 10° SSW 18:54:33 88° WNW 18:56:46 39° NNE
Cosmos 2369 Rocket 3.4 18:51:14 10° NNW 18:54:50 27° NNE 18:54:50 27° NNE
Spot 2 Rocket 3.4 18:52:15 10° SSE 18:57:19 89° WSW 19:02:24 10° NNW
SL-16 R/B 2.6 18:53:52 10° S 18:58:16 44° SE 18:58:16 44° SE
Cosmos 371 Rocket 4.2 18:56:57 10° SW 19:01:35 46° WNW 19:04:03 25° N
Cosmos 2297 4.1 18:58:19 10° NW 19:03:58 62° WSW 19:09:08 12° SSE
Lacrosse 4 Rocket 3.0 19:05:37 10° NNW 19:07:28 25° NNW 19:07:28 25° NNW
Resurs 01 Rocket 1.9 19:09:28 42° SSW 19:10:49 65° WSW 19:15:15 10° NNW
Cosmos 2084 4.3 19:08:37 10° WSW 19:11:21 41° W 19:11:21 41° W
NOSS 0 Rocket 4.2 19:07:56 10° SW 19:14:06 64° NW 19:16:52 34° NNE
Aureole 2 Rocket 4.3 19:10:31 10° SSW 19:12:29 30° SW 19:12:29 30° SW
Cosmos 44 Rocket 3.9 19:16:35 10° WSW 19:21:34 52° NW 19:21:57 51° NNW
Lacrosse 5 2.9 19:19:02 10° WNW 19:23:12 37° NNW 19:23:12 37° NNW
CENTAUR R/B 3.5 19:24:14 10° W 19:30:24 43° NNW 19:32:50 33° NNE
Cosmos 2333 Rocket 3.6 19:50:15 10° WSW 19:55:17 32° NW 19:56:26 29° NNW
ATLAS 5 CENTAUR R/B 3.8 19:56:41 10° NW 19:59:21 26° NNW 19:59:21 26° NNW
Cosmos 2219 Rocket 4.1 20:03:58 10° W 20:08:27 23° NW 20:09:31 22° NNW
Cosmos 1943 Rocket 4.4 20:15:14 10° NNW 20:16:19 16° NNW 20:16:19 16° NNW
ATLAS 3B R/B 4.2 20:30:23 10° NW 20:34:08 28° NNW 20:34:08 28° NNW
Cosmos 2237 Rocket 4.3 20:35:04 10° W 20:38:39 22° NW 20:38:39 22° NW
Cosmos 2369 Rocket 4.4 20:35:03 10° NNW 20:36:39 19° NW 20:36:39 19° NW
SL-16 R/B 4.4 20:38:25 10° WSW 20:40:13 19° WSW 20:40:13 19° WSW
CZ-4C R/B 4.2 20:37:20 10° NW 20:40:22 28° NNW 20:40:22 28° NNW
